Home > Weather > Prescott > Past weeks

Flag for USA Past Weather in Prescott, Arizona, USA — Yesterday and Last 2 Weeks

Now
63 °F

Sunny.


Feels Like: 63 °F
Forecast: 47 / 79 °F
Wind: 3 mph from North

Location: Love Field

Current Time: May 28, 2016 at 9:17:23 AM

Latest Report: May 28, 2016 at 7:53 AM


Visibility: 10 mi

Pressure: 29.83 "Hg (24.61 "Hg at 1635m altitude)

Humidity: 27%

Dew Point: 28 °F

Location of PrescottLocation

Past Weather in Prescott — Graph

°F

Prescott Temperature Yesterday

Maximum temperature yesterday: 75 °F (at 3:53 PM)
Minimum temperature yesterday: 46 °F (at 4:53 AM)
Average temperature yesterday: 63 °F

High & Low Weather Summary for the Past Weeks

 TemperatureHumidityPressure
High85 °F (May 13, 1:53 PM)86% (May 18, 5:53 AM)30.01 "Hg (May 18, 5:53 AM)
Low42 °F (May 25, 4:53 AM)9% (May 13, 12:53 PM)29.64 "Hg (May 15, 3:53 PM)
Average62 °F34%29.81 "Hg
* Reported May 13 6:53 AM — May 28 6:53 AM, Prescott, Weather by CustomWeather, © 2016

Note: Actual official high and low records may vary slightly from our data, if they occured in-between our weather recording intervals... More about our weather records

Advertising

Prescott Weather History for the Previous 24 Hours

Scroll right to see more
 ConditionsComfort  
Time TempWeatherWind HumidityBarometerVisibility
6:53 AM
Sat, May 28
57 °FSunny.No wind37%29.82 "Hg10 mi
5:53 AM49 °FSunny.3 mph48%29.82 "Hg10 mi
4:53 AM50 °FClear.9 mph43%29.81 "Hg10 mi
3:53 AM49 °FClear.5 mph48%29.80 "Hg10 mi
2:53 AM51 °FClear.6 mph44%29.80 "Hg10 mi
1:53 AM51 °FClear.8 mph46%29.81 "Hg10 mi
12:53 AM57 °FClear.3 mph33%29.80 "Hg10 mi
11:53 PM
Fri, May 27
60 °FPassing clouds.3 mph27%29.80 "Hg10 mi
10:53 PM60 °FClear.10 mph28%29.79 "Hg10 mi
9:53 PM61 °FClear.5 mph25%29.78 "Hg10 mi
8:53 PM62 °FClear.6 mph25%29.78 "Hg10 mi
7:53 PM67 °FClear.8 mph20%29.75 "Hg10 mi
6:53 PM72 °FSunny.12 mph17%29.74 "Hg10 mi
5:53 PM75 °FScattered clouds.14 mph15%29.74 "Hg10 mi
4:53 PM75 °FPartly sunny.5 mph15%29.74 "Hg10 mi
3:53 PM75 °FPartly sunny.15 mph15%29.74 "Hg10 mi
2:53 PM73 °FPartly sunny.6 mph17%29.76 "Hg10 mi
1:53 PM73 °FPassing clouds.5 mph17%29.78 "Hg10 mi
12:53 PM72 °FScattered clouds.7 mph18%29.80 "Hg10 mi
11:53 AM70 °FPartly sunny.6 mph20%29.82 "Hg10 mi
10:53 AM71 °FScattered clouds.3 mph19%29.83 "Hg10 mi
9:53 AM70 °FPassing clouds.N/A21%29.83 "Hg10 mi
Weather by CustomWeather, © 2016

See weather overviewHow to use our weather pages